Wind_Speed
25 25 26 25 25 26 30 29 28 28 28 29 30 34 41 27 35 38 40 46 43 45 46 30 25 25 25 25 24 23 23 22
23 23 25 22 23 23 23 22 23 24 33 40 29 27 31 37 38 36 41 43 43 31 33 25 27 26 26 26 25 24 25 24
24 25 24 24 22 21 22 24 27 30 31 29 33 34 37 38 36 37 40 40 25 16 29 23 30 28 28 27 26 25 26 25
25 25 25 25 25 25 25 27 29 31 33 34 36 36 36 38 39 37 41 36 26 25 24 27 29 30 30 28 28 27 28 27
27 26 26 26 27 30 32 33 35 36 36 35 36 38 40 40 39 37 37 35 30 29 31 32 30 32 31 30 30 31 31 31
31 28 29 30 30 30 33 36 38 38 40 40 41 40 41 39 37 35 37 36 35 34 35 35 34 33 33 33 33 34 34 34
35 33 31 31 32 33 34 36 38 39 40 41 42 43 43 41 39 38 39 38 38 37 37 36 35 35 36 36 36 37 38 37
35 35 35 34 35 35 36 37 39 39 40 41 43 42 42 41 39 39 38 39 39 39 37 36 37 38 38 39 40 41 41 40
29 32 32 36 40 41 41 41 45 45 44 45 39 40 42 42 40 39 40 40 39 38 38 39 39 39 40 42 43 44 44 44
29 30 34 34 35 37 40 43 44 42 39 40 41 43 40 37 38 38 39 39 40 40 40 41 41 42 43 45 47 47 47 48
31 32 32 35 37 37 36 40 45 46 44 43 42 42 43 44 45 45 46 41 40 41 43 43 44 45 47 49 49 50 50 51
34 37 37 38 38 38 38 36 41 47 46 47 45 41 41 41 43 44 43 42 42 43 44 45 48 49 50 51 51 50 51 51
37 37 41 43 38 40 39 40 40 44 47 46 45 47 48 47 50 50 49 48 48 49 50 52 51 51 50 51 50 49 50 49
29 34 38 43 40 37 39 40 42 42 45 42 43 45 42 42 42 43 45 46 47 48 49 49 48 49 47 45 47 49 48 44
37 38 38 39 38 36 39 37 39 41 38 43 45 45 42 42 46 48 47 47 47 47 46 45 44 42 43 46 47 46 44 41
39 40 43 41 39 40 44 41 39 39 39 39 43 41 39 38 36 35 37 37 38 39 38 38 39 43 45 44 43 41 39 38
44 46 45 41 43 45 46 43 39 38 31 31 35 37 37 37 39 38 37 38 36 37 39 41 41 41 41 41 40 38 37 36
43 46 49 45 48 48 50 48 42 41 34 30 31 34 35 35 36 37 38 39 39 38 37 38 40 39 38 37 36 36 35 36
53 52 51 50 52 53 52 55 51 35 34 28 28 28 29 31 33 35 35 35 36 37 37 37 36 36 37 36 35 35 36 37
57 60 55 55 57 58 56 55 60 40 31 30 28 26 25 26 29 31 32 33 35 35 36 35 35 35 35 35 35 36 37 37
Wind_Direction
290 285 274 265 260 259 260 263 264 261 256 257 258 256 259 277 277 281 282 283 281 281 282 261 256 265 272 274 274 275 275 274
284 284 280 266 258 254 256 260 260 257 256 247 256 283 274 273 274 279 280 283 283 277 265 260 260 261 269 271 271 272 272 270
287 284 282 275 264 256 253 254 258 260 271 272 265 266 267 269 272 277 278 275 273 271 245 256 258 261 270 271 270 270 269 270
273 280 281 275 267 260 257 258 257 259 262 263 266 268 268 269 273 274 271 276 275 282 274 265 263 268 269 269 269 269 269 269
278 274 277 273 267 265 260 258 258 260 264 264 264 264 266 270 271 268 268 272 271 267 270 266 265 266 267 269 269 270 268 267
281 275 274 275 270 263 263 264 263 263 264 264 265 266 269 270 265 265 267 267 268 266 265 266 269 268 269 269 269 269 268 266
273 274 271 269 269 270 265 265 265 266 265 265 266 269 271 271 272 264 263 263 265 265 264 265 266 267 269 271 272 271 270 270
271 272 273 275 274 269 267 265 265 266 266 267 267 267 268 268 268 265 265 265 263 263 264 265 265 267 269 270 270 270 271 274
271 264 265 268 270 268 263 260 263 265 264 256 265 267 267 267 266 266 267 266 265 264 265 267 269 271 271 273 275 276 278 281
262 267 270 271 269 269 271 273 268 269 267 267 265 265 265 266 265 264 264 264 264 264 265 267 268 269 271 273 275 278 280 281
269 267 264 262 265 267 268 268 270 267 261 258 259 260 260 261 261 263 260 258 261 262 265 268 270 271 272 273 275 278 280 282
271 273 275 269 266 265 263 266 266 268 266 265 257 256 257 257 258 256 259 263 263 263 264 266 267 267 269 273 277 281 285 285
279 278 280 277 274 273 265 262 266 264 268 268 261 256 251 250 251 253 252 251 254 257 258 260 265 270 274 276 280 284 286 288
274 274 278 279 277 273 270 264 265 266 267 269 269 265 261 262 261 260 260 260 261 264 268 271 273 274 277 283 285 286 286 289
274 270 267 271 277 272 268 266 260 262 270 270 270 268 272 274 267 267 270 270 269 269 270 271 274 281 284 285 286 286 287 289
264 267 264 269 269 267 266 263 264 263 264 264 264 266 273 273 271 272 274 276 274 274 277 280 282 282 283 282 283 285 287 289
275 269 265 267 268 262 262 264 259 254 259 267 270 272 274 278 280 282 282 282 282 280 281 281 280 278 279 282 283 287 289 291
267 262 260 261 263 262 261 264 262 250 257 266 264 264 268 270 273 275 278 279 279 279 277 277 276 277 279 281 285 288 290 292
272 266 260 257 257 257 257 260 260 243 254 261 260 258 262 265 270 274 276 277 277 275 273 274 276 279 283 285 287 288 291 292
275 270 262 254 253 251 256 253 249 236 243 244 250 256 265 269 270 275 278 279 277 277 276 276 279 280 281 283 286 289 290 290
Height
5798 5798 5798 5798 5798 5799 5799 5800 5801 5802 5803 5803 5803 5802 5801 5802 5806 5805 5804 5801 5800 5800 5800 5801 5803 5803 5803 5805 5805 5805 5804 5804
5793 5793 5792 5793 5793 5794 5794 5795 5796 5796 5796 5793 5792 5794 5798 5801 5800 5799 5797 5795 5794 5792 5794 5796 5797 5797 5798 5800 5801 5800 5799 5799
5787 5786 5786 5786 5787 5788 5790 5791 5791 5790 5788 5789 5793 5794 5794 5794 5794 5793 5792 5790 5787 5785 5786 5788 5791 5792 5793 5794 5795 5795 5794 5793
5780 5781 5781 5781 5782 5783 5784 5784 5785 5785 5786 5787 5788 5788 5788 5788 5788 5786 5783 5783 5783 5782 5782 5784 5785 5787 5788 5788 5788 5788 5788 5788
5775 5775 5775 5775 5775 5777 5778 5778 5778 5779 5779 5780 5781 5781 5781 5781 5780 5778 5777 5777 5778 5778 5778 5778 5779 5780 5781 5781 5781 5781 5781 5781
5768 5768 5768 5769 5770 5769 5770 5772 5772 5772 5773 5773 5773 5773 5773 5772 5770 5771 5770 5771 5771 5772 5771 5772 5772 5772 5773 5773 5773 5774 5774 5774
5762 5762 5761 5762 5762 5763 5763 5763 5764 5764 5765 5765 5765 5765 5765 5764 5763 5763 5763 5763 5764 5764 5764 5764 5764 5764 5765 5765 5765 5765 5764 5764
5754 5754 5755 5755 5756 5756 5756 5756 5755 5756 5756 5756 5756 5756 5756 5756 5756 5756 5756 5756 5756 5756 5756 5755 5755 5755 5756 5756 5756 5756 5756 5755
5746 5745 5744 5744 5745 5746 5746 5745 5745 5746 5745 5746 5746 5747 5747 5747 5747 5747 5748 5748 5748 5748 5748 5748 5747 5747 5746 5746 5746 5746 5745 5744
5736 5736 5736 5735 5735 5735 5736 5736 5735 5736 5736 5737 5737 5737 5737 5737 5737 5738 5738 5738 5738 5739 5740 5739 5739 5738 5738 5737 5736 5735 5734 5733
5729 5728 5726 5725 5724 5723 5724 5724 5725 5725 5726 5727 5727 5727 5727 5728 5728 5728 5728 5728 5728 5729 5730 5729 5729 5728 5727 5726 5725 5725 5724 5723
5719 5718 5716 5714 5713 5712 5712 5712 5713 5715 5714 5714 5715 5716 5717 5717 5718 5718 5718 5718 5718 5719 5720 5719 5719 5718 5717 5717 5717 5715 5714 5713
5710 5707 5704 5703 5703 5701 5701 5701 5702 5702 5704 5705 5704 5705 5704 5705 5706 5708 5708 5708 5708 5708 5708 5708 5709 5709 5709 5708 5707 5705 5704 5702
5701 5698 5695 5693 5693 5692 5691 5691 5691 5692 5692 5693 5694 5694 5694 5695 5695 5696 5696 5696 5697 5698 5700 5701 5700 5700 5699 5697 5696 5696 5693 5692
5690 5689 5685 5683 5683 5683 5681 5681 5682 5683 5683 5684 5684 5685 5685 5685 5686 5687 5688 5688 5689 5690 5690 5690 5690 5689 5687 5687 5685 5685 5683 5681
5677 5676 5674 5673 5673 5672 5671 5671 5672 5673 5673 5673 5674 5674 5674 5675 5676 5677 5678 5678 5678 5679 5679 5678 5678 5678 5678 5677 5676 5674 5672 5671
5664 5661 5661 5660 5660 5660 5659 5660 5661 5663 5663 5663 5662 5663 5664 5664 5665 5666 5666 5667 5667 5667 5668 5668 5668 5668 5667 5666 5665 5663 5662 5660
5650 5648 5648 5648 5646 5646 5647 5648 5649 5650 5652 5652 5653 5654 5655 5657 5658 5658 5658 5659 5659 5659 5658 5658 5658 5657 5657 5656 5654 5653 5651 5650
5634 5633 5633 5633 5632 5633 5634 5635 5635 5637 5640 5640 5643 5644 5646 5648 5649 5650 5650 5650 5650 5650 5650 5649 5649 5648 5646 5645 5644 5642 5641 5639
5616 5615 5617 5617 5617 5618 5620 5622 5621 5622 5625 5629 5632 5634 5636 5638 5639 5639 5639 5641 5641 5641 5640 5640 5639 5638 5637 5636 5635 5633 5631 5629